Flag for Germany Weather past 2 weeks in Ahlen, North Rhine-Westphalia, Germany

Now
63 °F

Partly sunny.


Feels Like: 63 °F
Forecast: 53 / 64 °F
Wind: 10 mph from Southwest

Location: Dortmund / Wickede

Current Time: Aug 30, 2014 at 5:12:00 PM

Latest Report: Aug 30, 2014 at 4:50 PM


Visibility: N/A

Pressure: 29.98 "Hg

Humidity: 77%

Dew point: 55 °F

Location of AhlenLocation

Historic Weather in Ahlen — Graph

°F

Ahlen temperature yesterday

Maximum temperature yesterday: 64 °F (at 10:50 AM)
Minimum temperature yesterday: 59 °F (at 6:20 AM)
Average temperature yesterday: 62 °F

Past Weeks' High & Low Weather Summary

 TemperatureHumidityPressure
High73 °F (Aug 28, 3:20 PM)100% (Aug 27, 6:20 AM)30.09 "Hg (Aug 27, 6:20 AM)
Low45 °F (Aug 27, 5:20 AM)43% (Aug 20, 2:50 PM)29.65 "Hg (Aug 26, 5:20 AM)
Average58 °F73%29.93 "Hg
* Reported Aug 15 3:50 PM — Aug 30 3:50 PM, Ahlen, Weather by CustomWeather, © 2014

Note: Actual official high and low records may vary slightly from our data, if they occured in-between our weather recording intervals... More about our weather records

Advertising

Ahlen weather history for previous 24 hours

 ConditionsComfort  
Time TempWeatherWind HumidityBarometerVisibility
3:50 PM
Aug 30
64 °FPartly sunny.14 mph73%30.01 "HgN/A
3:20 PM63 °FPartly sunny.14 mph73%30.01 "HgN/A
2:50 PM63 °FPartly sunny.14 mph77%30.01 "HgN/A
2:20 PM63 °FPartly sunny.12 mph77%30.01 "HgN/A
1:50 PM63 °FDrizzle. Partly sunny.15 mph77%30.01 "HgN/A
1:20 PM61 °FScattered clouds.13 mph83%30.01 "HgN/A
12:50 PM63 °FScattered clouds.14 mph73%30.01 "HgN/A
12:20 PM61 °FSunny.14 mph77%30.01 "Hg10 mi
11:50 AM61 °FPartly sunny.16 mph77%30.04 "HgN/A
11:20 AM63 °FScattered clouds.16 mph73%30.01 "HgN/A
10:50 AM64 °FScattered clouds.14 mph73%30.01 "HgN/A
10:20 AM63 °FScattered clouds.14 mph73%30.01 "HgN/A
9:50 AM61 °FScattered clouds.13 mph77%30.01 "HgN/A
9:20 AM61 °FScattered clouds.14 mph72%30.01 "HgN/A
8:50 AM61 °FScattered clouds.12 mph72%30.01 "HgN/A
8:20 AM61 °FScattered clouds.12 mph72%30.01 "HgN/A
7:50 AM59 °FScattered clouds.12 mph77%30.01 "HgN/A
7:20 AM59 °FPassing clouds.10 mph77%30.01 "HgN/A
6:50 AM59 °FPassing clouds.12 mph77%30.01 "HgN/A
6:20 AM59 °FPassing clouds.12 mph77%30.01 "HgN/A
5:50 AM59 °FClear.10 mph77%30.01 "Hg10 mi
5:20 AM59 °FClear.10 mph77%30.01 "Hg10 mi
10:50 PM
Aug 29
59 °FClear.9 mph77%30.01 "Hg10 mi
9:20 PM59 °FSunny.8 mph72%30.01 "Hg10 mi
8:50 PM59 °FSunny.8 mph72%30.01 "Hg10 mi
8:20 PM61 °FSunny.8 mph72%30.01 "Hg10 mi
7:50 PM63 °FSunny.10 mph64%30.01 "Hg10 mi
7:20 PM63 °FSunny.10 mph64%29.98 "Hg10 mi
6:50 PM64 °FSunny.8 mph68%29.98 "Hg10 mi
6:20 PM64 °FSunny.9 mph64%29.98 "Hg10 mi
5:50 PM64 °FPassing clouds.10 mph64%30.01 "HgN/A
5:20 PM64 °FPassing clouds.9 mph68%30.01 "HgN/A
Weather by CustomWeather, © 2014

See weather overviewHow to use our weather pages